Akron, CO

2:13 PM MST on November 24, 2017 (GMT -0700)
Akron-Washington County

Weather History for KAKO - August, 2014

Change the Weather History Date:

Thursday, August 7, 2014

  Actual Average Record
Temperature  
Mean Temperature 72 °F 73 °F  
Max Temperature 84 °F 87 °F 101 °F (1995)
Min Temperature 59 °F 60 °F 49 °F (1939)
Degree Days  
Heating Degree Days 0    
Month to date heating degree days 0  
Cooling Degree Days 7    
Month to date cooling degree days 61  
Growing Degree Days 20 (Base 50)    
Moisture  
Dew Point 58 °F    
Average Humidity 66    
Maximum Humidity 93    
Minimum Humidity 39    
Precipitation  
Precipitation 0.26 in 0.08 in 1.81 in (1959)
Month to date precipitation 0.34 0.64  
Year to date precipitation 11.13 11.83  
Sea Level Pressure  
Sea Level Pressure 30.00 in    
Wind  
Wind Speed 8 mph (West)    
Max Wind Speed 51 mph    
Max Gust Speed 65 mph    
Visibility 9 miles    
Events Rain , Thunderstorm    
T = Trace of Precipitation, MM = Missing Value Source: NWS Daily Summary

Daily Weather History Graph

Daily Weather History Graph

Search for Another Location

Airport or City:

Trip Planner

Search our weather history database for the weather conditions in past years. The results will help you decide how hot, cold, wet, or windy it might be!

Date:

Astronomy

Aug. 07, 2014 Rise Set
Actual Time 5:56 AM MDT 8:00 PM MDT
Civil Twilight 5:26 AM MDT 8:29 PM MDT
Nautical Twilight 4:50 AM MDT 9:06 PM MDT
Astronomical Twilight 4:10 AM MDT 9:45 PM MDT
Moon 5:18 PM MDT (8/7) 2:28 AM MDT (8/7)
Length of Visible Light 15h 03m
Length of Day
14h 03m
Waxing Gibbous, 87% of the Moon is Illuminated
Aug 7
Waxing Gibbous
Aug 10
Full
Aug 17
Last Quarter
Aug 25
New
Sep 2
First Quarter

Hourly Weather History & Observations

Time (MDT) Temp. Heat Index Dew Point Humidity Pressure Visibility Wind Dir Wind Speed Gust Speed Precip Events Conditions
12:53 AM 61.0 °F - 57.9 °F 90% 29.98 in 10.0 mi ENE 5.8 mph - N/A   Clear
1:53 AM 62.1 °F - 57.9 °F 86% 29.96 in 10.0 mi Calm Calm - N/A   Clear
2:53 AM 60.1 °F - 57.0 °F 90% 29.95 in 10.0 mi South 6.9 mph - N/A   Clear
3:53 AM 61.0 °F - 57.0 °F 87% 29.94 in 10.0 mi SSW 8.1 mph - N/A   Clear
4:53 AM 61.0 °F - 57.0 °F 87% 29.96 in 10.0 mi SW 12.7 mph - N/A   Partly Cloudy
5:53 AM 62.1 °F - 59.0 °F 90% 29.97 in 6.0 mi SW 9.2 mph - N/A   Mostly Cloudy
6:31 AM 61.0 °F - 59.0 °F 93% 30.14 in 6.0 mi North 8.1 mph - N/A   Partly Cloudy
6:53 AM 59.0 °F - 57.9 °F 96% 29.99 in 8.0 mi NNW 8.1 mph - N/A   Clear
7:25 AM 61.0 °F - 59.0 °F 93% 30.15 in 8.0 mi NW 5.8 mph - N/A   Scattered Clouds
7:34 AM 62.1 °F - 59.0 °F 90% 30.15 in 9.0 mi North 3.5 mph - N/A   Mostly Cloudy
7:53 AM 63.0 °F - 60.1 °F 90% 30.01 in 9.0 mi WNW 4.6 mph - N/A   Overcast
8:34 AM 64.0 °F - 61.0 °F 90% 30.14 in 7.0 mi Calm Calm - N/A   Scattered Clouds
8:53 AM 66.0 °F - 61.0 °F 84% 29.99 in 9.0 mi Calm Calm - N/A   Clear
9:53 AM 71.1 °F - 60.1 °F 68% 29.98 in 10.0 mi Calm Calm - N/A   Clear
10:53 AM 77.0 °F - 57.9 °F 52% 29.96 in 10.0 mi SW 5.8 mph - N/A   Clear
11:53 AM 75.0 °F - 59.0 °F 57% 29.97 in 10.0 mi West 8.1 mph - N/A   Scattered Clouds
12:53 PM 79.0 °F - 57.9 °F 48% 29.95 in 10.0 mi West 4.6 mph - N/A   Scattered Clouds
1:53 PM 82.0 °F 81.6 °F 55.9 °F 41% 29.91 in 10.0 mi SW 4.6 mph - N/A   Clear
2:53 PM 80.1 °F 80.0 °F 54.0 °F 40% 29.89 in 10.0 mi NNW 9.2 mph - N/A   Partly Cloudy
3:15 PM 70.0 °F - 55.9 °F 61% 30.07 in 6.0 mi North - - N/A Thunderstorm Unknown
3:30 PM 61.0 °F - 57.9 °F 90% 30.12 in 1.8 mi West 39.1 mph 50.6 mph 0.08 in Rain , Thunderstorm Heavy Thunderstorms and Rain
3:39 PM 62.1 °F - 59.0 °F 90% 30.13 in 3.0 mi West 31.1 mph 47.2 mph 0.13 in Rain , Thunderstorm Thunderstorms and Rain
3:53 PM 61.0 °F - 59.0 °F 93% 30.03 in 6.0 mi West 24.2 mph 34.5 mph 0.19 in Rain , Thunderstorm Rain
4:32 PM 61.0 °F - 57.0 °F 87% 30.12 in 9.0 mi NW 12.7 mph - 0.07 in Rain Light Rain
4:53 PM 64.9 °F - 59.0 °F 81% 29.98 in 10.0 mi North 13.8 mph - 0.07 in   Partly Cloudy
5:53 PM 68.0 °F - 55.9 °F 65% 29.92 in 10.0 mi East 19.6 mph 26.5 mph N/A   Clear
6:53 PM 68.0 °F - 55.0 °F 63% 29.91 in 10.0 mi ESE 12.7 mph - N/A   Clear
7:53 PM 64.9 °F - 55.0 °F 70% 29.92 in 10.0 mi ESE 9.2 mph - N/A   Clear
8:53 PM 63.0 °F - 55.9 °F 78% 29.96 in 10.0 mi South 9.2 mph - N/A   Clear
9:53 PM 64.0 °F - 55.0 °F 73% 30.00 in 10.0 mi WNW 8.1 mph - N/A   Clear
10:53 PM 62.1 °F - 55.0 °F 78% 29.96 in 10.0 mi SSW 8.1 mph - N/A   Clear
11:53 PM 61.0 °F - 55.9 °F 83% 29.97 in 10.0 mi West 8.1 mph - N/A   Clear